Location: Navajo
(48.7922°N, 105.0603°W)
Time: 03:49:45
(UTC+00:00)

CUBEBUG 2 - Pass Details

Date: 03 July 2022
Orbit: 584 x 692 km, 97.7° (Epoch: 11 August)

Event Time Altitude Azimuth Distance (km) Brightness Sun altitude
Rises 09:30:19 0° 20° (NNE) 2,838 ? -11.2°
Reaches altitude 10° 09:32:37 10° 29° (NNE) 1,941 ? -11.0°
Maximum altitude 09:36:31 36° 97° (E) 958 ? -10.6°
Drops below altitude 10° 09:40:29 10° 165° (SSE) 1,974 ? -10.3°
Enters shadow 09:41:48 - 171° (S) 2,485 ? -10.1°
